QPF
0.02 0.04 0.04 0.03 0.02 0.02 0.03 0.03 0.02 0.02 0.01 0.01 0.02 0.03 0.03 0.03 0.05 0.06 0.07 0.11 0.12 0.10 0.08 0.06 0.06 0.05 0.04 0.04 0.04 0.03 0.04 0.04 0.03 0.03 0.02 0.02 0.03 0.04 0.03 0.04 0.04 0.03 0.02
0.05 0.07 0.07 0.05 0.03 0.03 0.04 0.04 0.03 0.02 0.02 0.02 0.03 0.04 0.04 0.05 0.05 0.04 0.05 0.07 0.09 0.09 0.09 0.07 0.06 0.07 0.06 0.05 0.05 0.04 0.03 0.03 0.03 0.02 0.02 0.03 0.05 0.04 0.03 0.03 0.04 0.03 0.02
0.04 0.05 0.03 0.03 0.03 0.04 0.03 0.03 0.03 0.02 0.02 0.03 0.04 0.05 0.05 0.06 0.05 0.04 0.05 0.05 0.04 0.05 0.05 0.05 0.06 0.07 0.06 0.05 0.05 0.04 0.03 0.03 0.02 0.02 0.02 0.03 0.03 0.03 0.04 0.04 0.04 0.04 0.04
0.04 0.04 0.03 0.02 0.03 0.03 0.03 0.04 0.03 0.03 0.03 0.04 0.05 0.05 0.05 0.06 0.05 0.06 0.07 0.06 0.05 0.05 0.05 0.05 0.03 0.04 0.05 0.04 0.03 0.03 0.02 0.02 0.02 0.02 0.02 0.03 0.03 0.03 0.04 0.05 0.06 0.05 0.05
0.03 0.03 0.04 0.05 0.06 0.08 0.09 0.07 0.04 0.04 0.05 0.06 0.06 0.05 0.05 0.06 0.06 0.06 0.06 0.05 0.04 0.04 0.03 0.03 0.02 0.03 0.03 0.03 0.03 0.02 0.02 0.02 0.02 0.02 0.03 0.04 0.03 0.03 0.04 0.04 0.06 0.07 0.06
0.03 0.03 0.04 0.06 0.06 0.09 0.10 0.06 0.04 0.05 0.06 0.07 0.06 0.05 0.04 0.03 0.05 0.05 0.04 0.03 0.03 0.03 0.02 0.03 0.02 0.02 0.02 0.03 0.02 0.02 0.02 0.02 0.02 0.03 0.03 0.03 0.02 0.03 0.03 0.03 0.05 0.06 0.07
0.02 0.03 0.04 0.04 0.04 0.05 0.05 0.04 0.03 0.04 0.06 0.07 0.07 0.05 0.03 0.03 0.03 0.03 0.03 0.03 0.02 0.02 0.02 0.03 0.03 0.02 0.02 0.02 0.02 0.02 0.02 0.02 0.02 0.02 0.02 0.03 0.03 0.03 0.03 0.03 0.03 0.04 0.05
0.02 0.02 0.03 0.03 0.03 0.03 0.03 0.04 0.03 0.03 0.03 0.04 0.05 0.04 0.02 0.02 0.03 0.03 0.03 0.03 0.03 0.04 0.04 0.04 0.04 0.03 0.02 0.01 0.01 0.01 0.02 0.02 0.03 0.03 0.03 0.03 0.04 0.03 0.02 0.02 0.03 0.04 0.04
0.02 0.01 0.01 0.02 0.02 0.02 0.02 0.02 0.02 0.02 0.02 0.03 0.04 0.04 0.03 0.03 0.03 0.03 0.03 0.03 0.05 0.06 0.07 0.05 0.03 0.03 0.02 0.01 0.01 0.01 0.01 0.01 0.02 0.02 0.02 0.03 0.03 0.03 0.03 0.03 0.03 0.04 0.04
0.02 0.02 0.02 0.02 0.02 0.02 0.02 0.03 0.03 0.02 0.02 0.03 0.04 0.04 0.04 0.04 0.03 0.03 0.03 0.04 0.04 0.05 0.05 0.03 0.02 0.02 0.01 0.01 0.01 0.01 0.01 0.01 0.01 0.01 0.01 0.01 0.02 0.03 0.03 0.04 0.03 0.03 0.03
0.02 0.02 0.02 0.02 0.03 0.02 0.03 0.03 0.03 0.02 0.03 0.04 0.04 0.04 0.04 0.03 0.03 0.03 0.03 0.03 0.02 0.03 0.03 0.02 0.02 0.02 0.01 0.01 0.01 0.02 0.02 0.01 0.01 0.01 0.01 0.01 0.01 0.02 0.02 0.04 0.04 0.04 0.04
0.02 0.03 0.04 0.05 0.03 0.03 0.02 0.02 0.02 0.03 0.03 0.05 0.04 0.03 0.03 0.02 0.02 0.02 0.03 0.03 0.03 0.02 0.01 0.01 0.01 0.01 0.01 0.01 0.01 0.02 0.02 0.02 0.02 0.02 0.02 0.01 0.02 0.02 0.01 0.01 0.02 0.03 0.04
0.03 0.04 0.05 0.06 0.05 0.04 0.02 0.02 0.02 0.02 0.03 0.04 0.03 0.02 0.02 0.02 0.02 0.02 0.04 0.03 0.02 0.02 0.02 0.02 0.01 0.01 0.00 0.01 0.01 0.01 0.02 0.02 0.02 0.02 0.02 0.01 0.01 0.02 0.01 0.01 0.01 0.01 0.02
0.03 0.03 0.04 0.06 0.06 0.04 0.03 0.03 0.02 0.02 0.02 0.02 0.02 0.02 0.01 0.02 0.02 0.03 0.03 0.02 0.02 0.01 0.01 0.01 0.01 0.02 0.01 0.01 0.01 0.01 0.02 0.02 0.02 0.01 0.01 0.01 0.01 0.01 0.01 0.01 0.01 0.01 0.01
0.02 0.02 0.03 0.03 0.04 0.05 0.04 0.03 0.02 0.02 0.01 0.02 0.02 0.02 0.02 0.02 0.03 0.03 0.02 0.02 0.02 0.01 0.01 0.01 0.01 0.01 0.01 0.01 0.01 0.01 0.01 0.01 0.01 0.01 0.01 0.01 0.01 0.02 0.01 0.01 0.02 0.01 0.01
0.02 0.02 0.02 0.02 0.03 0.04 0.03 0.02 0.02 0.01 0.01 0.02 0.02 0.02 0.02 0.02 0.03 0.02 0.02 0.03 0.02 0.01 0.01 0.01 0.01 0.01 0.01 0.01 0.01 0.01 0.01 0.01 0.01 0.01 0.01 0.02 0.02 0.02 0.01 0.01 0.01 0.01 0.01
0.02 0.01 0.01 0.02 0.02 0.02 0.02 0.02 0.02 0.02 0.02 0.02 0.02 0.02 0.02 0.02 0.03 0.03 0.03 0.03 0.02 0.02 0.01 0.01 0.01 0.01 0.01 0.02 0.02 0.02 0.03 0.02 0.02 0.01 0.01 0.01 0.01 0.01 0.01 0.01 0.01 0.02 0.02
0.02 0.01 0.01 0.01 0.01 0.01 0.01 0.02 0.02 0.03 0.04 0.03 0.02 0.02 0.02 0.02 0.04 0.06 0.05 0.03 0.01 0.01 0.01 0.01 0.01 0.01 0.02 0.03 0.03 0.02 0.02 0.03 0.03 0.03 0.02 0.02 0.01 0.01 0.01 0.01 0.01 0.01 0.01
0.02 0.01 0.01 0.00 0.01 0.01 0.01 0.01 0.01 0.02 0.02 0.03 0.03 0.03 0.03 0.04 0.06 0.06 0.05 0.03 0.01 0.01 0.01 0.01 0.02 0.02 0.03 0.03 0.03 0.02 0.01 0.02 0.02 0.02 0.03 0.04 0.03 0.02 0.02 0.01 0.01 0.01 0.01
0.01 0.01 0.01 0.01 0.01 0.00 0.01 0.01 0.01 0.01 0.02 0.02 0.02 0.03 0.04 0.05 0.05 0.04 0.02 0.02 0.02 0.02 0.01 0.02 0.02 0.02 0.02 0.02 0.02 0.02 0.02 0.01 0.01 0.01 0.01 0.02 0.02 0.02 0.02 0.02 0.02 0.02 0.03
0.02 0.02 0.01 0.00 0.00 0.00 0.01 0.01 0.01 0.02 0.03 0.02 0.02 0.03 0.04 0.04 0.04 0.03 0.02 0.02 0.02 0.02 0.02 0.02 0.02 0.01 0.01 0.02 0.02 0.02 0.01 0.00 0.01 0.00 0.01 0.01 0.01 0.02 0.02 0.02 0.01 0.01 0.02
0.02 0.02 0.01 0.01 0.01 0.01 0.01 0.01 0.02 0.03 0.03 0.02 0.03 0.03 0.03 0.03 0.03 0.03 0.03 0.03 0.03 0.03 0.03 0.02 0.03 0.03 0.03 0.03 0.03 0.02 0.01 0.01 0.01 0.01 0.01 0.01 0.01 0.01 0.01 0.01 0.01 0.01 0.01
0.03 0.02 0.01 0.02 0.02 0.02 0.03 0.05 0.05 0.03 0.02 0.02 0.02 0.02 0.02 0.02 0.02 0.02 0.02 0.03 0.05 0.06 0.04 0.04 0.03 0.04 0.03 0.02 0.02 0.02 0.02 0.01 0.01 0.01 0.01 0.01 0.01 0.01 0.01 0.01 0.01 0.01 0.01
0.03 0.02 0.02 0.02 0.02 0.02 0.04 0.05 0.04 0.03 0.03 0.03 0.03 0.03 0.02 0.02 0.02 0.02 0.03 0.03 0.04 0.05 0.05 0.03 0.03 0.02 0.01 0.01 0.02 0.02 0.02 0.03 0.02 0.02 0.01 0.01 0.01 0.01 0.01 0.02 0.01 0.01 0.01
0.02 0.02 0.01 0.01 0.02 0.04 0.05 0.04 0.04 0.04 0.04 0.04 0.04 0.05 0.05 0.04 0.03 0.04 0.04 0.05 0.05 0.05 0.04 0.03 0.03 0.02 0.02 0.02 0.02 0.02 0.02 0.02 0.03 0.03 0.03 0.03 0.02 0.02 0.02 0.02 0.01 0.01 0.00
0.01 0.01 0.02 0.02 0.03 0.03 0.03 0.03 0.02 0.03 0.04 0.05 0.05 0.05 0.04 0.03 0.03 0.03 0.04 0.05 0.06 0.05 0.04 0.03 0.02 0.03 0.02 0.02 0.01 0.02 0.02 0.03 0.03 0.03 0.03 0.02 0.02 0.02 0.02 0.02 0.01 0.00 0.00
MSLP
1000.75 1000.61 1000.70 1000.98 1001.40 1001.91 1002.43 1002.92 1003.33 1003.65 1003.86 1003.99 1004.05 1004.08 1004.14 1004.25 1004.46 1004.77 1005.20 1005.72 1006.32 1006.96 1007.59 1008.21 1008.78 1009.31 1009.81 1010.31 1010.81 1011.35 1011.93 1012.54 1013.16 1013.76 1014.28 1014.71 1015.00 1015.17 1015.21 1015.15 1015.03 1014.88 1014.74
999.24 999.09 999.21 999.56 1000.10 1000.75 1001.44 1002.09 1002.65 1003.10 1003.41 1003.60 1003.70 1003.76 1003.82 1003.93 1004.14 1004.45 1004.88 1005.40 1006.00 1006.63 1007.26 1007.86 1008.43 1008.96 1009.48 1010.00 1010.55 1011.16 1011.81 1012.50 1013.20 1013.87 1014.46 1014.92 1015.25 1015.42 1015.45 1015.37 1015.22 1015.02 1014.83
997.88 997.74 997.90 998.33 998.97 999.75 1000.56 1001.35 1002.04 1002.60 1003.00 1003.26 1003.41 1003.50 1003.57 1003.70 1003.90 1004.22 1004.65 1005.17 1005.77 1006.41 1007.04 1007.66 1008.24 1008.79 1009.33 1009.88 1010.48 1011.12 1011.81 1012.53 1013.26 1013.95 1014.55 1015.03 1015.36 1015.53 1015.56 1015.47 1015.30 1015.10 1014.89
996.81 996.68 996.88 997.37 998.09 998.94 999.86 1000.74 1001.53 1002.17 1002.65 1002.98 1003.17 1003.30 1003.40 1003.54 1003.76 1004.08 1004.52 1005.06 1005.67 1006.32 1006.98 1007.62 1008.24 1008.82 1009.40 1009.98 1010.60 1011.25 1011.94 1012.66 1013.37 1014.03 1014.61 1015.06 1015.37 1015.53 1015.56 1015.48 1015.34 1015.16 1014.98
996.07 995.97 996.20 996.72 997.47 998.37 999.32 1000.26 1001.10 1001.80 1002.34 1002.72 1002.97 1003.14 1003.28 1003.45 1003.70 1004.04 1004.50 1005.06 1005.70 1006.38 1007.07 1007.76 1008.42 1009.05 1009.66 1010.27 1010.89 1011.53 1012.20 1012.87 1013.52 1014.12 1014.63 1015.03 1015.31 1015.46 1015.51 1015.46 1015.37 1015.25 1015.12
995.69 995.62 995.86 996.38 997.12 998.01 998.95 999.88 1000.74 1001.46 1002.04 1002.47 1002.78 1003.01 1003.21 1003.43 1003.72 1004.10 1004.59 1005.18 1005.85 1006.57 1007.31 1008.04 1008.74 1009.42 1010.06 1010.69 1011.31 1011.93 1012.54 1013.14 1013.71 1014.22 1014.66 1015.00 1015.24 1015.39 1015.45 1015.46 1015.43 1015.39 1015.35
995.66 995.61 995.84 996.33 997.01 997.84 998.73 999.62 1000.44 1001.17 1001.76 1002.24 1002.60 1002.90 1003.18 1003.47 1003.82 1004.26 1004.79 1005.42 1006.13 1006.88 1007.66 1008.43 1009.17 1009.88 1010.55 1011.19 1011.79 1012.37 1012.92 1013.44 1013.92 1014.35 1014.71 1014.99 1015.20 1015.35 1015.45 1015.51 1015.56 1015.61 1015.66
995.96 995.91 996.11 996.53 997.13 997.86 998.65 999.46 1000.23 1000.93 1001.54 1002.06 1002.49 1002.86 1003.22 1003.60 1004.03 1004.53 1005.12 1005.79 1006.52 1007.30 1008.10 1008.90 1009.66 1010.39 1011.07 1011.70 1012.28 1012.82 1013.31 1013.76 1014.15 1014.50 1014.79 1015.03 1015.23 1015.39 1015.53 1015.66 1015.78 1015.92 1016.05
996.57 996.51 996.65 996.98 997.47 998.08 998.76 999.47 1000.17 1000.83 1001.44 1001.99 1002.49 1002.95 1003.40 1003.87 1004.38 1004.95 1005.59 1006.29 1007.04 1007.83 1008.63 1009.43 1010.19 1010.91 1011.58 1012.19 1012.74 1013.24 1013.68 1014.07 1014.41 1014.70 1014.95 1015.17 1015.36 1015.54 1015.72 1015.90 1016.09 1016.30 1016.49
997.48 997.38 997.46 997.69 998.06 998.54 999.10 999.70 1000.32 1000.95 1001.55 1002.14 1002.69 1003.24 1003.78 1004.33 1004.92 1005.55 1006.22 1006.94 1007.70 1008.47 1009.25 1010.02 1010.76 1011.45 1012.09 1012.66 1013.18 1013.64 1014.05 1014.40 1014.70 1014.96 1015.20 1015.41 1015.61 1015.81 1016.02 1016.24 1016.48 1016.72 1016.96
998.66 998.53 998.53 998.67 998.93 999.28 999.72 1000.23 1000.77 1001.35 1001.95 1002.56 1003.16 1003.77 1004.39 1005.02 1005.66 1006.33 1007.03 1007.75 1008.48 1009.22 1009.96 1010.68 1011.36 1012.00 1012.60 1013.14 1013.62 1014.05 1014.43 1014.76 1015.05 1015.30 1015.54 1015.75 1015.97 1016.19 1016.42 1016.66 1016.91 1017.17 1017.41
1000.08 999.91 999.86 999.92 1000.08 1000.33 1000.67 1001.08 1001.57 1002.10 1002.68 1003.30 1003.93 1004.58 1005.25 1005.92 1006.61 1007.30 1007.99 1008.69 1009.39 1010.07 1010.75 1011.40 1012.01 1012.60 1013.13 1013.63 1014.08 1014.48 1014.84 1015.17 1015.46 1015.72 1015.96 1016.20 1016.42 1016.65 1016.88 1017.12 1017.37 1017.61 1017.83
1001.68 1001.49 1001.40 1001.39 1001.48 1001.66 1001.92 1002.27 1002.69 1003.19 1003.74 1004.34 1004.98 1005.65 1006.33 1007.01 1007.70 1008.38 1009.05 1009.71 1010.36 1010.98 1011.58 1012.15 1012.70 1013.22 1013.70 1014.15 1014.56 1014.95 1015.30 1015.62 1015.92 1016.20 1016.45 1016.69 1016.92 1017.15 1017.37 1017.59 1017.80 1018.00 1018.18
1003.36 1003.16 1003.05 1003.02 1003.08 1003.21 1003.42 1003.72 1004.09 1004.54 1005.06 1005.63 1006.24 1006.88 1007.54 1008.21 1008.87 1009.51 1010.14 1010.75 1011.33 1011.88 1012.41 1012.91 1013.39 1013.84 1014.27 1014.68 1015.06 1015.43 1015.78 1016.10 1016.41 1016.69 1016.95 1017.19 1017.42 1017.63 1017.82 1018.00 1018.17 1018.31 1018.44
1005.00 1004.83 1004.73 1004.70 1004.74 1004.86 1005.05 1005.32 1005.66 1006.06 1006.53 1007.04 1007.60 1008.19 1008.80 1009.40 1010.01 1010.59 1011.16 1011.70 1012.22 1012.71 1013.17 1013.61 1014.03 1014.43 1014.82 1015.19 1015.55 1015.90 1016.23 1016.56 1016.86 1017.14 1017.40 1017.64 1017.85 1018.03 1018.19 1018.33 1018.44 1018.53 1018.60
1006.50 1006.36 1006.30 1006.30 1006.36 1006.49 1006.69 1006.94 1007.25 1007.61 1008.02 1008.47 1008.95 1009.46 1009.98 1010.50 1011.02 1011.54 1012.03 1012.51 1012.97 1013.40 1013.81 1014.20 1014.58 1014.94 1015.30 1015.64 1015.98 1016.31 1016.63 1016.94 1017.24 1017.51 1017.75 1017.97 1018.15 1018.31 1018.43 1018.52 1018.59 1018.64 1018.67
1007.78 1007.69 1007.67 1007.72 1007.83 1007.99 1008.20 1008.45 1008.74 1009.06 1009.41 1009.78 1010.17 1010.58 1011.01 1011.44 1011.87 1012.30 1012.72 1013.13 1013.53 1013.92 1014.30 1014.66 1015.00 1015.34 1015.67 1016.00 1016.32 1016.63 1016.93 1017.22 1017.50 1017.75 1017.97 1018.16 1018.32 1018.44 1018.53 1018.59 1018.63 1018.65 1018.65
1008.81 1008.77 1008.81 1008.91 1009.07 1009.28 1009.51 1009.77 1010.04 1010.32 1010.61 1010.91 1011.21 1011.53 1011.85 1012.18 1012.52 1012.87 1013.22 1013.58 1013.93 1014.28 1014.63 1014.97 1015.30 1015.62 1015.94 1016.24 1016.54 1016.83 1017.11 1017.38 1017.63 1017.85 1018.05 1018.21 1018.34 1018.44 1018.51 1018.55 1018.57 1018.58 1018.57
1009.62 1009.63 1009.72 1009.87 1010.08 1010.32 1010.58 1010.85 1011.11 1011.36 1011.60 1011.82 1012.05 1012.27 1012.50 1012.74 1013.00 1013.28 1013.57 1013.87 1014.19 1014.52 1014.84 1015.17 1015.49 1015.80 1016.10 1016.39 1016.67 1016.93 1017.19 1017.42 1017.64 1017.84 1018.00 1018.14 1018.25 1018.34 1018.39 1018.43 1018.45 1018.45 1018.46
1010.25 1010.30 1010.43 1010.63 1010.87 1011.14 1011.42 1011.69 1011.94 1012.16 1012.36 1012.53 1012.69 1012.84 1013.00 1013.17 1013.36 1013.57 1013.81 1014.08 1014.37 1014.67 1014.98 1015.29 1015.60 1015.89 1016.18 1016.45 1016.70 1016.95 1017.17 1017.38 1017.57 1017.73 1017.88 1018.00 1018.09 1018.17 1018.22 1018.26 1018.29 1018.31 1018.33
1010.80 1010.87 1011.02 1011.24 1011.50 1011.78 1012.06 1012.32 1012.55 1012.75 1012.92 1013.05 1013.16 1013.26 1013.37 1013.48 1013.63 1013.80 1014.00 1014.24 1014.50 1014.78 1015.07 1015.37 1015.66 1015.93 1016.20 1016.45 1016.68 1016.89 1017.09 1017.27 1017.43 1017.58 1017.70 1017.81 1017.90 1017.97 1018.03 1018.08 1018.12 1018.15 1018.19
1011.30 1011.38 1011.54 1011.75 1012.00 1012.27 1012.53 1012.78 1012.99 1013.17 1013.31 1013.41 1013.49 1013.56 1013.64 1013.72 1013.84 1013.99 1014.17 1014.38 1014.62 1014.88 1015.15 1015.42 1015.68 1015.94 1016.18 1016.40 1016.60 1016.79 1016.96 1017.12 1017.26 1017.39 1017.51 1017.61 1017.70 1017.78 1017.84 1017.90 1017.95 1018.00 1018.04
1011.79 1011.86 1012.00 1012.19 1012.41 1012.64 1012.88 1013.09 1013.27 1013.42 1013.54 1013.62 1013.69 1013.75 1013.81 1013.89 1013.99 1014.13 1014.29 1014.49 1014.71 1014.94 1015.19 1015.43 1015.67 1015.89 1016.10 1016.30 1016.48 1016.64 1016.79 1016.93 1017.07 1017.19 1017.30 1017.40 1017.50 1017.58 1017.66 1017.72 1017.78 1017.83 1017.88
1012.25 1012.31 1012.42 1012.56 1012.73 1012.92 1013.10 1013.27 1013.42 1013.53 1013.63 1013.70 1013.75 1013.81 1013.87 1013.95 1014.06 1014.19 1014.35 1014.53 1014.73 1014.94 1015.16 1015.37 1015.58 1015.78 1015.96 1016.13 1016.29 1016.43 1016.57 1016.71 1016.84 1016.96 1017.08 1017.19 1017.29 1017.38 1017.46 1017.53 1017.59 1017.65 1017.69
1012.64 1012.67 1012.74 1012.84 1012.96 1013.08 1013.21 1013.32 1013.42 1013.50 1013.57 1013.63 1013.68 1013.74 1013.81 1013.90 1014.00 1014.14 1014.29 1014.46 1014.64 1014.83 1015.02 1015.21 1015.39 1015.56 1015.72 1015.87 1016.02 1016.16 1016.30 1016.43 1016.57 1016.70 1016.83 1016.95 1017.06 1017.16 1017.24 1017.31 1017.37 1017.41 1017.44
1012.87 1012.90 1012.93 1012.99 1013.05 1013.11 1013.18 1013.24 1013.29 1013.34 1013.38 1013.42 1013.47 1013.53 1013.60 1013.69 1013.81 1013.94 1014.09 1014.25 1014.42 1014.59 1014.76 1014.92 1015.08 1015.23 1015.38 1015.52 1015.66 1015.81 1015.95 1016.10 1016.25 1016.40 1016.54 1016.67 1016.79 1016.89 1016.98 1017.04 1017.09 1017.12 1017.14
Thickness
5651 5648 5645 5644 5644 5643 5642 5642 5643 5643 5643 5643 5644 5644 5644 5644 5644 5643 5642 5641 5639 5636 5634 5632 5629 5627 5624 5623 5621 5619 5617 5615 5612 5614 5616 5618 5618 5619 5620 5621 5622 5623 5624
5648 5645 5643 5642 5641 5640 5640 5640 5641 5641 5640 5640 5641 5641 5641 5641 5641 5639 5639 5638 5635 5632 5630 5627 5625 5623 5621 5619 5616 5615 5613 5612 5609 5607 5608 5610 5611 5612 5612 5613 5615 5617 5617
5646 5643 5641 5640 5639 5638 5637 5638 5638 5638 5638 5638 5638 5638 5638 5639 5638 5637 5635 5634 5632 5629 5626 5623 5621 5619 5617 5615 5613 5611 5609 5609 5606 5603 5602 5603 5604 5605 5605 5606 5608 5609 5611
5643 5641 5640 5639 5638 5637 5636 5636 5637 5637 5637 5637 5636 5636 5636 5636 5635 5634 5632 5630 5628 5626 5623 5620 5619 5617 5614 5612 5610 5608 5606 5603 5601 5599 5597 5596 5597 5599 5598 5598 5599 5601 5602
5641 5639 5639 5638 5637 5636 5635 5635 5635 5636 5636 5635 5634 5633 5633 5633 5632 5630 5629 5627 5624 5622 5620 5618 5617 5616 5614 5611 5609 5606 5603 5600 5596 5594 5592 5591 5591 5591 5592 5592 5592 5593 5595
5638 5637 5636 5635 5634 5633 5633 5632 5632 5632 5632 5631 5630 5629 5629 5630 5629 5627 5625 5623 5621 5618 5616 5615 5614 5613 5612 5609 5607 5605 5602 5598 5594 5591 5589 5587 5588 5588 5588 5588 5586 5585 5586
5634 5633 5633 5631 5630 5630 5630 5629 5628 5627 5627 5627 5626 5625 5625 5625 5625 5624 5622 5619 5617 5615 5614 5612 5611 5611 5608 5605 5603 5601 5599 5597 5595 5591 5587 5586 5585 5586 5585 5583 5582 5580 5581
5632 5630 5629 5628 5627 5627 5626 5625 5624 5624 5623 5623 5622 5622 5621 5621 5621 5620 5619 5616 5615 5614 5612 5611 5608 5606 5605 5602 5599 5597 5595 5594 5592 5590 5588 5586 5586 5585 5583 5581 5579 5578 5577
5629 5628 5627 5626 5625 5624 5622 5622 5621 5621 5621 5620 5621 5620 5619 5619 5618 5617 5616 5613 5611 5611 5610 5608 5606 5603 5602 5600 5596 5593 5591 5589 5590 5589 5587 5585 5584 5583 5581 5577 5574 5571 5570
5627 5627 5626 5625 5623 5621 5620 5619 5619 5619 5618 5618 5618 5617 5616 5615 5615 5614 5612 5610 5607 5606 5605 5604 5603 5601 5598 5596 5592 5589 5586 5586 5585 5584 5583 5582 5580 5579 5578 5574 5571 5567 5565
5625 5625 5624 5623 5621 5620 5619 5617 5617 5616 5615 5615 5614 5614 5613 5612 5611 5610 5609 5606 5604 5602 5601 5600 5599 5597 5595 5592 5589 5586 5585 5583 5581 5579 5577 5576 5575 5574 5573 5571 5569 5566 5562
5623 5622 5621 5620 5619 5619 5615 5614 5613 5612 5611 5610 5609 5609 5608 5608 5608 5607 5605 5603 5602 5599 5597 5596 5595 5593 5590 5588 5586 5584 5582 5579 5576 5574 5572 5570 5569 5569 5569 5568 5566 5564 5562
5620 5618 5617 5616 5615 5613 5612 5610 5609 5608 5607 5606 5605 5603 5603 5603 5603 5602 5601 5599 5598 5595 5594 5593 5591 5588 5586 5584 5583 5581 5579 5576 5573 5570 5567 5566 5565 5565 5564 5563 5562 5560 5558
5616 5615 5614 5612 5611 5610 5609 5608 5606 5605 5603 5602 5601 5599 5598 5598 5598 5597 5596 5594 5593 5591 5589 5588 5586 5584 5582 5580 5579 5577 5576 5573 5570 5567 5565 5562 5561 5560 5558 5557 5555 5553 5550
5613 5611 5610 5609 5607 5606 5605 5604 5603 5603 5601 5600 5598 5597 5595 5595 5596 5596 5593 5591 5589 5587 5584 5582 5580 5578 5577 5575 5574 5573 5571 5570 5567 5564 5561 5558 5556 5554 5553 5551 5549 5546 5543
5609 5608 5606 5605 5604 5602 5601 5600 5601 5600 5600 5599 5597 5596 5595 5595 5594 5593 5591 5589 5586 5584 5580 5577 5576 5575 5573 5572 5570 5569 5567 5566 5564 5561 5558 5555 5552 5550 5548 5546 5544 5541 5537
5607 5606 5604 5603 5602 5600 5599 5597 5596 5597 5597 5596 5595 5594 5594 5593 5592 5590 5588 5586 5584 5581 5577 5575 5573 5572 5570 5569 5567 5565 5564 5562 5560 5557 5554 5551 5548 5546 5543 5541 5538 5535 5533
5605 5604 5603 5601 5600 5598 5597 5595 5594 5593 5593 5593 5594 5593 5593 5592 5590 5588 5585 5582 5580 5578 5575 5574 5572 5570 5568 5566 5564 5563 5561 5559 5556 5553 5550 5547 5544 5542 5539 5536 5533 5530 5528
5602 5601 5600 5599 5598 5597 5596 5595 5593 5593 5592 5592 5592 5592 5592 5590 5588 5585 5582 5579 5578 5577 5575 5573 5571 5569 5566 5565 5563 5561 5558 5555 5553 5549 5546 5544 5541 5538 5534 5531 5529 5527 5523
5599 5599 5598 5597 5596 5595 5594 5593 5592 5592 5591 5590 5590 5590 5590 5587 5585 5583 5580 5579 5577 5575 5574 5572 5570 5568 5566 5564 5561 5558 5555 5552 5549 5546 5543 5540 5537 5534 5531 5528 5524 5521 5518
5596 5596 5596 5595 5594 5593 5593 5592 5591 5590 5589 5589 5590 5591 5590 5587 5586 5584 5581 5579 5577 5575 5574 5571 5569 5566 5564 5562 5559 5556 5552 5549 5545 5543 5540 5536 5533 5530 5527 5524 5521 5517 5514
5593 5593 5593 5592 5592 5591 5591 5591 5590 5589 5588 5588 5589 5590 5589 5587 5585 5584 5582 5581 5578 5576 5574 5571 5568 5565 5563 5560 5557 5553 5549 5546 5542 5539 5536 5533 5530 5527 5523 5520 5517 5513 5510
5591 5591 5590 5590 5589 5590 5589 5588 5587 5587 5587 5587 5587 5587 5587 5586 5586 5584 5582 5580 5577 5575 5572 5569 5566 5563 5561 5558 5555 5552 5547 5544 5540 5537 5533 5530 5527 5524 5520 5517 5514 5511 5507
5588 5588 5587 5587 5586 5586 5585 5585 5585 5585 5586 5586 5586 5586 5586 5586 5584 5583 5581 5579 5577 5574 5571 5568 5564 5561 5558 5556 5553 5550 5546 5543 5540 5536 5533 5529 5525 5521 5518 5514 5512 5509 5505
5585 5585 5584 5584 5583 5583 5583 5583 5583 5584 5584 5584 5584 5585 5585 5585 5583 5581 5579 5578 5575 5571 5569 5565 5562 5560 5557 5554 5551 5547 5544 5541 5538 5534 5531 5527 5523 5520 5516 5513 5509 5506 5502
5583 5583 5582 5581 5580 5581 5581 5581 5581 5582 5582 5582 5582 5582 5583 5582 5581 5579 5577 5574 5571 5569 5566 5564 5561 5559 5556 5552 5549 5545 5542 5539 5536 5532 5529 5525 5521 5518 5514 5511 5508 5504 5500